Location: Strawberry
(45.6646°N, 111.9596°W)
Time: 17:46:06
(UTC+00:00)

SR - Pass Details

Date: 08 October 2022
Orbit: 577 x 874 km, 66.7° (Epoch: 05 December)

Event Time Altitude Azimuth Distance (km) Brightness Sun altitude
Exits shadow 09:26:01 12° 4° (N) 2,248 ? -41.3°
Maximum altitude 09:27:59 14° 27° (NNE) 2,076 ? -41.0°
Drops below altitude 10° 09:30:44 10° 58° (ENE) 2,298 ? -40.7°
Sets 09:34:15 0° 84° (E) 3,147 ? -40.2°
